Location: *
(28.3744°N, 81.5492°W)
Time: 04:05:10
(UTC+00:00)

SL-24 DEB - Pass Details

Date: 15 June 2025
Orbit: 625 x 645 km, 98.2° (Epoch: 11 July)

Event Time Altitude Azimuth Distance (km) Brightness Sun altitude
Rises 08:17:36 0° 12° (NNE) 2,919 9.0 -23.9°
Reaches altitude 10° 08:19:48 10° 13° (NNE) 2,012 8.0 -23.6°
Maximum altitude 08:24:11 88° 105° (ESE) 638 4.5 -22.9°
Enters shadow 08:24:43 69° 187° (S) 679 4.5 -22.8°
